Home   Weather   Vista   Past weeks

Flag for USA Past Weather in Vista, California, USA — Yesterday and Last 2 Weeks

Now
73 °F

Sunny.


Feels Like: 75 °F
Forecast: 59 / 73 °F
Wind: 9 mph from Southwest

Location: McClellan-Palomar Airport

Current Time: Jun 27, 2017 at 5:18:27 pm

Latest Report: Jun 27, 2017 at 3:53 pm


Visibility: 10 mi

Pressure: 29.86 "Hg

Humidity: 71%

Dew Point: 63 °F

Location of VistaLocation

Past Weather in Vista — Graph

°F

Vista Temperature Yesterday

Maximum temperature yesterday: 79 °F (at 3:53 pm)
Minimum temperature yesterday: 64 °F (at 3:53 am)
Average temperature yesterday: 71 °F

High & Low Weather Summary for the Past Weeks

 TemperatureHumidityPressure
High79 °F (Jun 26, 3:53 pm)100% (Jun 16, 5:53 am)30.00 "Hg (Jun 16, 5:53 am)
Low55 °F (Jun 13, 4:53 am)42% (Jun 15, 5:53 pm)29.70 "Hg (Jun 21, 5:53 pm)
Average66 °F84%29.85 "Hg
* Reported Jun 12 3:53 pm — Jun 27 3:53 pm, Vista. Weather by CustomWeather, © 2017

Note: Actual official high and low records may vary slightly from our data, if they occured in-between our weather recording intervals... More about our weather records

Advertising

Vista Weather History for the Previous 24 Hours

Scroll right to see more
 ConditionsComfort  
Time TempWeatherWind HumidityBarometerVisibility
3:53 pm
Tue, Jun 27
73 °FSunny.9 mph71%29.86 "Hg10 mi
2:53 pm76 °FSunny.7 mph58%29.88 "Hg10 mi
1:53 pm74 °FSunny.7 mph67%29.88 "Hg10 mi
12:53 pm76 °FSunny.9 mph64%29.88 "Hg10 mi
11:53 am74 °FSunny.8 mph69%29.88 "Hg10 mi
10:53 am75 °FSunny.8 mph62%29.88 "Hg10 mi
9:53 am76 °FSunny.3 mph64%29.88 "Hg10 mi
8:53 am73 °FSunny.5 mph69%29.88 "Hg10 mi
7:53 am68 °FSunny.No wind82%29.88 "Hg10 mi
6:53 am65 °FSunny.No wind87%29.86 "Hg10 mi
5:53 am63 °FSunny.No wind93%29.85 "Hg9 mi
4:53 am64 °FClear.3 mph75%29.85 "Hg10 mi
3:53 am64 °FClear.No wind90%29.84 "Hg10 mi
2:53 am65 °FClear.No wind91%29.85 "Hg10 mi
1:53 am67 °FClear.No wind87%29.86 "Hg10 mi
12:53 am68 °FClear.No wind87%29.87 "Hg10 mi
11:53 pm
Mon, Jun 26
68 °FClear.No wind87%29.89 "Hg10 mi
10:53 pm70 °FClear.No wind81%29.88 "Hg10 mi
9:53 pm70 °FClear.3 mph84%29.89 "Hg10 mi
8:53 pm71 °FClear.3 mph78%29.89 "Hg10 mi
7:53 pm72 °FSunny.5 mph76%29.87 "Hg10 mi
6:53 pm77 °FSunny.3 mph58%29.87 "Hg10 mi
5:53 pm77 °FSunny.6 mph58%29.88 "Hg10 mi
Weather by CustomWeather, © 2017

See weather overviewHow to use our weather pages